Home   Weather   Shantou   Past weeks

Flag for China Past Weather in Shantou, Guangdong, China — Yesterday and Last 2 Weeks

Now
54 °F

Partly sunny.


Feels Like: 54 °F
Forecast: 52 / 73 °F
Wind: No wind

Location: Shantou Airport

Current Time: Feb 28, 2017 at 8:55:29 am

Latest Report: Feb 28, 2017 at 8:00 am


Visibility: 4 mi

Pressure: 30.24 "Hg

Humidity: 72%

Dew Point: 45 °F

Location of ShantouLocation

Past Weather in Shantou — Graph

°F

Shantou Temperature Yesterday

Maximum temperature yesterday: 68 °F (at 2:00 pm)
Minimum temperature yesterday: 52 °F (at 2:00 am)
Average temperature yesterday: 58 °F

High & Low Weather Summary for the Past Weeks

 TemperatureHumidityPressure
High81 °F (Feb 17, 3:00 pm)100% (Feb 16, 6:00 am)30.48 "Hg (Feb 16, 6:00 am)
Low45 °F (Feb 13, 7:00 am)22% (Feb 14, 2:00 pm)29.89 "Hg (Feb 20, 2:00 pm)
Average60 °F77%30.16 "Hg
* Reported Feb 13 7:00 am — Feb 28 7:00 am, Shantou, Weather by CustomWeather, © 2017

Note: Actual official high and low records may vary slightly from our data, if they occured in-between our weather recording intervals... More about our weather records

Advertising

Shantou Weather History for the Previous 24 Hours

Scroll right to see more
 ConditionsComfort  
Time TempWeatherWind HumidityBarometerVisibility
7:00 am
Tue, Feb 28
50 °FFog.3 mph88%30.21 "Hg2 mi
6:00 am50 °FClear.1 mph82%30.21 "Hg4 mi
5:00 am50 °FClear.1 mph88%30.18 "Hg4 mi
4:00 am50 °FClear.3 mph82%30.18 "Hg4 mi
3:00 am50 °FClear.1 mph76%30.21 "Hg5 mi
2:00 am52 °FClear.1 mph72%30.21 "Hg10 mi
1:00 am54 °FPassing clouds.3 mph63%30.24 "HgN/A
12:00 am54 °FClear.1 mph63%30.24 "Hg5 mi
11:00 pm
Mon, Feb 27
55 °FClear.3 mph67%30.21 "Hg5 mi
10:00 pm57 °FClear.6 mph55%30.21 "Hg10 mi
9:00 pm57 °FClear.6 mph59%30.21 "Hg10 mi
8:00 pm59 °FClear.8 mph55%30.21 "Hg10 mi
7:00 pm61 °FClear.10 mph52%30.18 "Hg10 mi
6:00 pm63 °FPassing clouds.10 mph52%30.18 "HgN/A
5:00 pm64 °FPassing clouds.10 mph46%30.18 "HgN/A
4:00 pm66 °FSunny.10 mph40%30.15 "Hg10 mi
3:00 pm68 °FPassing clouds.8 mph38%30.18 "HgN/A
2:00 pm68 °FSunny.3 mph40%30.18 "Hg10 mi
1:00 pm66 °FSunny.6 mph43%30.18 "Hg10 mi
12:00 pm64 °FPassing clouds.6 mph49%30.24 "HgN/A
11:00 am63 °FSunny.6 mph56%30.27 "Hg10 mi
10:00 am59 °FFog.3 mph77%30.27 "Hg3 mi
9:00 am57 °FFog.1 mph82%30.27 "Hg2 mi
8:00 am54 °FFog.1 mph94%30.27 "Hg2 mi
Weather by CustomWeather, © 2017

See weather overviewHow to use our weather pages